Lexington Weather

Lexington, Massachusetts, USA

70°F
8/17/2022 5:41pm 
  • Lexington Conditions: Overcast
  • Temperature: 70.0°F / 21.1°CColder 0.5°F than last hour.
  • Dew Point: 58.5°FIncreased 1.1°Fsince last hour.
  • Relative Humidity: 67%Increased 4.0% since last hour.
  • Wind: Wind from NNE NNE 1 mph, 10-min avg: Calm, gust: 2 mph
  • Barometer: 29.86 inFalling 0.02  inHg/hr Falling Slowly
  • Visibility: 10 miles
  • Rain Today: 0.00 in
  •   

Regional Weather Roundup
for Boston, MA

        
000
ASUS41 KBOX 151410
RWRBOX

REGIONAL WEATHER ROUNDUP
NATIONAL WEATHER SERVICE BOSTON/NORTON MA
1000 AM EDT MON AUG 15 2022

NOTE:  "FAIR" INDICATES FEW OR NO CLOUDS BELOW 12,000 FEET WITH NO 
SIGNIFICANT WEATHER AND/OR OBSTRUCTIONS TO VISIBILITY.

MAZALL-151500-
EASTERN MASSACHUSETTS
  
CITY           SKY/WX    TMP DP  RH WIND       PRES   REMARKS
BOSTON         PTSUNNY   72  56  57 E7        30.03R                  
BEVERLY        MOSUNNY   77  57  50 E5        30.01F                  
LAWRENCE       MOSUNNY   77  57  50 VRB5      30.04S                  
BEDFORD        MOSUNNY   76  56  49 E6        30.01F                  
BLUE HILL      NOT AVBL                                               
NORWOOD        MOSUNNY   80  57  45 CALM      30.01S                  
MARSHFIELD     MOSUNNY   70  55  60 E5        30.02S                  
PLYMOUTH       MOSUNNY   75  58  55 VRB3      30.02F                  
TAUNTON          N/A    N/A N/A N/A MISG      30.01F                  
NEW BEDFORD    MOSUNNY   76  56  49 SE5       30.01S                  
$$

MAZALL-151500-
CAPE COD AND THE ISLANDS
  
CITY           SKY/WX    TMP DP  RH WIND       PRES   REMARKS
FALMOUTH       SUNNY     75  59  57 S3        30.02S                  
HYANNIS        MOSUNNY   75  60  59 VRB5      30.01S                  
CHATHAM        MOSUNNY   75  58  55 S6        30.04S                  
NANTUCKET      MOSUNNY   75  63  66 SE6       30.03S                  
MARTHAS VNYRD  MOSUNNY   75  61  61 S7        30.02S                  
$$
 
MAZALL-151500-
CENTRAL AND WESTERN MASSACHUSETTS
  
CITY           SKY/WX    TMP DP  RH WIND       PRES   REMARKS
WORCESTER      PTSUNNY   73  54  51 CALM      30.05S                  
FITCHBURG      MOSUNNY   75  49  39 NE6       30.04R                  
ORANGE         MOSUNNY   71  56  58 CALM      30.04F                  
SPRINGFIELD    PTSUNNY   70  55  59 CALM      30.00S                  
WESTFIELD      MOSUNNY   72  54  53 N6        30.02S                  
NORTH ADAMS    SUNNY     69  56  62 CALM      30.03F                  
PITTSFIELD     SUNNY     72  55  55 VRB3      30.03F                  
$$
 
RIZALL-151500-
RHODE ISLAND
  
CITY           SKY/WX    TMP DP  RH WIND       PRES   REMARKS
PROVIDENCE     PTSUNNY   75  56  51 CALM      30.02F                  
NEWPORT        MOSUNNY   74  58  57 CALM      30.02S                  
BLOCK ISLAND   MOSUNNY   74  57  55 NE5       30.03S                  
SMITHFIELD     MOSUNNY   76  56  49 NE7       30.03S                  
WESTERLY       MOSUNNY   76  57  51 CALM      30.02S                  
$$
 
CTZALL-151500-
CONNECTICUT
  
CITY           SKY/WX    TMP DP  RH WIND       PRES   REMARKS
BRADLEY INTL   PTSUNNY   71  57  61 CALM      30.02S                  
HARTFORD       MOSUNNY   73  57  57 VRB3      30.02R                  
BRIDGEPORT     MOSUNNY   74  60  61 E8        30.01S                  
DANBURY        MOSUNNY   74  59  59 NE5       30.02S                  
GROTON         PTSUNNY   74  60  61 SE8       30.01S                  
NEW HAVEN      MOSUNNY   78  58  49 VRB5      30.01F                  
CHESTER        FAIR      79  55  44 VRB3      30.02S                  
MERIDEN        MOSUNNY   75  55  49 CALM      30.02S                  
WILLIMANTIC    MOSUNNY   73  55  53 E3        30.02F                  
OXFORD         PTSUNNY   72  57  59 CALM      30.04R                  
$$

MEZ002-015-021-024-NHZ003-005-008-011-012-014-VTZ005-008-151500-
NORTHERN NEW ENGLAND
  
CITY           SKY/WX    TMP DP  RH WIND       PRES   REMARKS
PORTLAND ME    MOSUNNY   74  57  55 NE5       30.04S                  
BANGOR ME      MOSUNNY   75  61  61 N3        30.05S                  
CONCORD NH     SUNNY     73  55  53 CALM      30.04S                  
MANCHESTER NH  MOSUNNY   77  55  46 VRB3      30.02S                  
NASHUA NH      MOSUNNY   73  55  53 VRB3      30.04S                  
PORTSMOUTH NH  PTSUNNY   76  55  48 SE5       30.03R                  
JAFFREY NH     MOSUNNY   74  53  48 CALM      30.05F                  
KEENE NH       SUNNY     67  54  63 SE3         N/A                   
BURLINGTON VT  MOSUNNY   71  54  54 CALM      30.04F                  
MT. WASHINGTON PTSUNNY   50  45  81 SE9         N/A                   
$$

NYZ052-076-151500-
EASTERN NEW YORK
  
CITY           SKY/WX    TMP DP  RH WIND       PRES   REMARKS
ALBANY         MOSUNNY   73  55  53 NE3       30.02F                  
NEW YORK CITY  PTSUNNY   76  57  51 NE3       29.99S                  
$$
 
ANZALL-151500-
MARINE OBSERVATIONS
  
STATION/POSITION TIME  TEMP    WIND        PRES    VSBY  WAVE
                       AIR SEA DIR/SP/G                  HT/PER
                 (UTC) (F)     (DEG/KT/KT) (MB)    (MI)  (FT/S)
BOSTON BUOY      NOT AVBL
BUZZARDS BAY     NOT AVBL
NANTUCKET SOUND  NOT AVBL
MASS BAY-STELLWA NOT AVBL
ISLE OF SHOALS   NOT AVBL
S OF BLOCK IS    NOT AVBL
$$

......................KEY.........................
  SKY/WX - SKY CONDITION/PRESENT WEATHER
  TMP    - TEMPERATURE IN FAHRENHEIT
  DWPT   - DEWPOINT IN FAHRENHEIT
  RH     - RELATIVE HUMIDITY IN PERCENT
  WIND   - DIRECTION AND SPEED IN MPH
  PRES   - MEAN SEA LEVEL PRESSURE IN INCHES OF HG
  WCI    - WIND CHILL INDEX
  VSB    - VISIBILITY IN MILES
  HX     - HEAT INDEX
  TC     - TEMPERATURE IN CELSIUS
  VRB    - VARIABLE WIND DIRECTION
  N/A    - NOT AVAILABLE
  
      

Other recent Regional Weather Roundups

Wed Aug 17, 5:10pm

Wed Aug 17, 4:10pm

Wed Aug 17, 3:10pm

Wed Aug 17, 2:10pm

Wed Aug 17, 1:10pm

Wed Aug 17, 12:10pm

Wed Aug 17, 11:10am

Wed Aug 17, 10:10am

Wed Aug 17, 9:10am

Wed Aug 17, 8:10am

Wed Aug 17, 7:10am

Wed Aug 17, 6:10am

Wed Aug 17, 5:10am

Wed Aug 17, 4:10am

Wed Aug 17, 3:10am

Wed Aug 17, 2:10am

Wed Aug 17, 1:10am

Wed Aug 17, 12:10am

Tue Aug 16, 11:10pm

Tue Aug 16, 10:10pm

Tue Aug 16, 9:10pm

Tue Aug 16, 8:10pm

Tue Aug 16, 7:10pm

Tue Aug 16, 6:10pm

Tue Aug 16, 5:10pm

Tue Aug 16, 4:10pm

Tue Aug 16, 3:10pm

Tue Aug 16, 2:10pm

Tue Aug 16, 1:10pm

Tue Aug 16, 12:10pm

Tue Aug 16, 11:10am

Tue Aug 16, 10:10am

Tue Aug 16, 9:10am

Tue Aug 16, 8:10am

Tue Aug 16, 7:10am

Tue Aug 16, 6:10am

Tue Aug 16, 5:10am

Tue Aug 16, 4:10am

Tue Aug 16, 3:10am

Tue Aug 16, 2:10am

Tue Aug 16, 1:10am

Tue Aug 16, 12:10am

Mon Aug 15, 11:10pm

Mon Aug 15, 10:10pm

Mon Aug 15, 9:10pm

Mon Aug 15, 8:10pm

Mon Aug 15, 7:10pm

Mon Aug 15, 6:10pm

Mon Aug 15, 5:10pm

Mon Aug 15, 4:10pm

Mon Aug 15, 3:10pm

Mon Aug 15, 2:10pm

Mon Aug 15, 1:10pm

Mon Aug 15, 12:10pm

Mon Aug 15, 11:10am

Mon Aug 15, 9:10am

Mon Aug 15, 8:10am

Mon Aug 15, 7:10am

Mon Aug 15, 6:10am

Mon Aug 15, 5:10am

Mon Aug 15, 4:10am

Mon Aug 15, 3:10am

Mon Aug 15, 2:10am

Mon Aug 15, 1:10am

Mon Aug 15, 12:10am

Sun Aug 14, 11:10pm

Sun Aug 14, 10:10pm

Sun Aug 14, 9:10pm

Sun Aug 14, 8:10pm

Sun Aug 14, 7:10pm

Sun Aug 14, 6:10pm

Sun Aug 14, 5:10pm

Sun Aug 14, 4:10pm

Sun Aug 14, 3:10pm

Sun Aug 14, 2:10pm

Sun Aug 14, 1:10pm

Sun Aug 14, 12:10pm

Sun Aug 14, 11:10am

Sun Aug 14, 10:10am

Sun Aug 14, 9:10am

Sun Aug 14, 8:10am

Sun Aug 14, 7:10am

Sun Aug 14, 6:10am

Sun Aug 14, 5:10am

Sun Aug 14, 4:10am

Sun Aug 14, 3:10am

Sun Aug 14, 2:10am

Sun Aug 14, 1:10am

Sun Aug 14, 12:10am

Sat Aug 13, 11:10pm

Sat Aug 13, 10:10pm

Sat Aug 13, 9:10pm

Sat Aug 13, 8:10pm

Sat Aug 13, 7:10pm

Sat Aug 13, 6:10pm

Sat Aug 13, 5:10pm

Sat Aug 13, 4:10pm

Sat Aug 13, 3:10pm

Sat Aug 13, 2:10pm

Sat Aug 13, 1:10pm

Sat Aug 13, 12:10pm

Sat Aug 13, 11:10am

Sat Aug 13, 10:10am

Sat Aug 13, 9:10am

Sat Aug 13, 8:10am

Sat Aug 13, 7:10am

Sat Aug 13, 6:10am

Sat Aug 13, 5:10am

Sat Aug 13, 4:10am

Sat Aug 13, 3:10am

Sat Aug 13, 2:10am

Sat Aug 13, 1:10am

Sat Aug 13, 12:10am

Fri Aug 12, 11:10pm

Fri Aug 12, 10:10pm

Fri Aug 12, 9:10pm

Fri Aug 12, 8:10pm

Fri Aug 12, 7:10pm

Fri Aug 12, 6:10pm

Fri Aug 12, 5:10pm

Fri Aug 12, 4:10pm

Fri Aug 12, 3:10pm

Fri Aug 12, 2:10pm

Fri Aug 12, 1:10pm

Fri Aug 12, 12:10pm

Fri Aug 12, 11:10am

Fri Aug 12, 10:10am

Fri Aug 12, 9:10am

Fri Aug 12, 8:10am

Fri Aug 12, 7:10am

Fri Aug 12, 6:10am

Fri Aug 12, 5:10am

Fri Aug 12, 4:10am

Fri Aug 12, 3:10am

Fri Aug 12, 2:10am

Fri Aug 12, 1:10am

Fri Aug 12, 12:10am

Thu Aug 11, 11:10pm

Thu Aug 11, 10:10pm

Thu Aug 11, 9:10pm

Thu Aug 11, 8:10pm

Thu Aug 11, 7:10pm

Thu Aug 11, 6:10pm

Thu Aug 11, 5:10pm

Thu Aug 11, 4:10pm

Thu Aug 11, 3:10pm

Thu Aug 11, 2:10pm

Thu Aug 11, 1:10pm

Thu Aug 11, 12:10pm

Thu Aug 11, 11:10am

Thu Aug 11, 10:10am

Thu Aug 11, 9:10am

Thu Aug 11, 8:10am

Thu Aug 11, 7:10am

Thu Aug 11, 6:10am

Thu Aug 11, 5:10am

Thu Aug 11, 4:10am

Thu Aug 11, 3:10am

Thu Aug 11, 2:10am

Thu Aug 11, 1:10am

Thu Aug 11, 12:10am

Wed Aug 10, 11:10pm

Wed Aug 10, 10:10pm

Wed Aug 10, 9:10pm

Wed Aug 10, 8:10pm

Wed Aug 10, 7:10pm

Wed Aug 10, 6:10pm

Meta data:

ID: c448e988-00ef-4712-847a-cbb6e774ab55
Link: https://api.weather.gov/products/c448e988-00ef-4712-847a-cbb6e774ab55